Location: Arcizac
(43.0933°N, 0.0112°E)
Time: 05:51:51
(UTC+00:00)

BREEZE-M R/B - Pass Details

Date: 14 December 2019
Orbit: 309 x 4546 km, 49.7° (Epoch: 26 January)

Event Time Altitude Azimuth Distance (km) Brightness Sun altitude
Rises 18:00:15 0° 294° (WNW) 3,830 7.9 -16.6°
Reaches altitude 10° 18:03:51 10° 300° (WNW) 2,300 6.6 -17.2°
Maximum altitude 18:08:23 43° 12° (NNE) 689 3.1 -18.0°
Enters shadow 18:08:43 41° 30° (NNE) 684 2.9 -18.1°
